sat.trackr.live / text

‹ back to catalog

CO3D 2

NORAD 64902 · 2025-156D

PAYLOAD ACTIVE UNKNOWN

§ Identity

Operator
Country
FR
Launch date
2025-07-26
Launch site
FRGUI
Launch vehicle
Mass (kg)
RCS (m²)

Purposes: earth_obs

External: N2YO · Heavens-Above · Gunter

§ Orbital elements

Epoch: 2026-05-25T04:22:29.140608Z

Period
94.72 min
Inclination
97.4321°
Eccentricity
0.0001069
Mean motion
15.20194134 rev/d
Perigee alt
504.5 km
Apogee alt
506.0 km
Semi-major
6,883.4 km
B*
2.0839e-4
RAAN
224.1046°
Arg perigee
130.5470°
Mean anomaly
229.5858°
Rev number
4,603

§ Raw data

CO3D 21 64902U 25156D   26145.18228172  .00004445  00000+0  20839-3 0  99902 64902  97.4321 224.1046 0001069 130.5470 229.5858 15.20194134 46036

JSON: /api/v1/satellites/64902 · /tle

For live sub-satellite position, see the globe view (requires WebGL).

§ Visibility from observer

Set your observer location to see the next 7 days of passes ≥ 10°. The values pass through the URL so the page stays shareable.

No JS? Fill the form by hand. The geolocation button needs JavaScript.